[[{"header":{"parameterUnit":"m.s-1","parameterCategory":1,"la1":30.2991,"la2":30.254,"lo1":-89.0895,"lo2":-89.0444,"dy":0.0017,"dx":0.0017,"nx":28,"ny":28,"refTime":"2024-08-27T03:00:00:Z","depth":0,"parameterNumber":2,"parameterNumberName":"U-component_of_WINDS"},"data":[0,0,0,0,0,0,0,0,0,0,0,0,0,0,0,0,0,0,0,0,0,0,0,0,0,0,0,0,0,0,0,0,0,0,0,0,0,0,0,0,0,0,0,0,0,0,0,0,0,0,0,0,0,0,0,0,0,0,-3.4025,-3.4025,0,-3.4064,-3.4065,-3.4065,-3.4049,-3.4048,-3.4047,-3.4046,-3.4086,-3.4087,-3.4089,0,0,0,0,0,0,0,0,0,0,0,0,0,-3.3934,-3.3936,-3.4025,-3.4025,-3.4026,-3.4064,-3.4065,-3.4065,-3.4049,-3.4048,-3.4047,-3.4046,-3.4085,-3.4087,-3.4089,0,0,0,0,0,0,0,0,0,0,0,0,0,-3.3973,-3.3936,-3.4024,-3.4022,-3.4022,-3.4064,-3.4065,-3.4065,-3.4049,-3.4048,-3.4046,-3.4045,-3.4084,-3.4087,-3.409,-3.4136,0,0,-3.4099,-3.41,0,0,0,0,0,0,0,0,-3.3971,-3.3977,-3.4022,-3.4022,-3.4023,-3.405,-3.4047,-3.4089,-3.405,-3.4039,-3.4046,-3.4044,-3.4075,-3.4078,-3.4089,-3.4138,-3.4139,-3.4099,-3.4101,-3.4102,-3.4103,0,0,0,0,0,0,0,-3.3968,-3.3975,-3.404,-3.4023,-3.4023,-3.4019,-3.4023,-3.4055,-3.4064,-3.404,-3.4039,-3.4044,-3.4075,-3.4086,-3.409,-3.414,-3.4099,-3.4101,-3.4103,-3.4104,-3.4228,-3.423,0,0,0,0,0,0,-3.3966,-3.3973,-3.4039,-3.4041,-3.3993,-3.4022,-3.4026,-3.4043,-3.4064,-3.4066,-3.4045,-3.4043,-3.4082,-3.4086,-3.4091,-3.4146,-3.4102,-3.4105,-3.4106,-3.4227,-3.4228,-3.423,0,0,0,0,0,0,-3.3964,-3.3972,-3.4037,-3.4007,-3.4015,-3.4025,-3.4043,-3.4044,-3.4056,-3.4068,-3.4069,-3.4055,-3.4081,-3.4087,-3.4125,-3.4147,-3.4106,-3.4108,-3.4225,-3.4227,-3.4229,-3.4256,0,0,0,0,0,0,-3.3961,-3.3971,-3.3989,-3.4007,-3.4017,-3.4071,-3.4045,-3.4046,-3.4061,-3.4058,-3.4078,-3.4079,-3.408,-3.4121,-3.4128,-3.415,-3.4111,-3.4223,-3.4226,-3.4229,-3.4253,-3.4259,-3.4264,0,0,0,0,0,-3.3958,-3.3995,-3.399,-3.3998,-3.4039,-3.4072,-3.4077,-3.4078,-3.4063,-3.408,-3.4088,-3.4079,-3.4144,-3.4125,-3.4132,-3.4156,-3.4221,-3.4225,-3.4228,-3.4251,-3.4258,-3.4264,0,0,0,0,0,0,-3.3978,-3.3997,-3.3992,-3.4036,-3.4052,-3.4069,-3.4092,-3.4086,-3.4107,-3.4104,-3.4103,-3.4108,-3.4147,-3.4155,-3.4134,-3.4202,-3.418,-3.4185,-3.4194,-3.4201,-3.4206,-3.4203,-3.4113,0,0,0,0,0,-3.3988,-3.4013,-3.4028,-3.4065,-3.4074,-3.4082,-3.4096,-3.4095,-3.4112,-3.4119,-3.413,-3.4147,-3.4171,-3.4187,-3.421,-3.4255,-3.4258,-3.4275,-3.428,-3.4285,-3.4289,-3.4313,-3.432,-3.4242,-3.4242,-3.4242,0,0,-3.4007,-3.4021,-3.4037,-3.407,-3.4083,-3.4109,-3.4088,-3.4116,-3.4135,-3.4124,-3.416,-3.4168,-3.4187,-3.4229,-3.4247,-3.4237,-3.4312,-3.4289,-3.4292,-3.4294,-3.4317,-3.4325,-3.4331,-3.4244,-3.4244,-3.4243,0,0,-3.4057,-3.407,-3.4102,-3.4116,-3.4136,-3.414,-3.4148,-3.4166,-3.4171,-3.4208,-3.42,-3.4223,-3.4264,-3.4278,-3.429,-3.4346,-3.4337,-3.4353,-3.4381,-3.4404,-3.441,-3.4416,-3.4435,-3.4442,-3.4357,-3.4358,-3.4358,0,-3.4079,-3.4118,-3.4119,-3.4148,-3.4163,-3.4154,-3.4186,-3.4199,-3.4226,-3.4236,-3.4224,-3.4276,-3.4288,-3.4333,-3.4346,-3.4357,-3.4365,-3.435,-3.4409,-3.4415,-3.442,-3.4438,-3.4445,-3.4359,-3.4359,-3.4359,-3.4359,0,-3.4143,-3.4171,-3.4195,-3.4221,-3.4238,-3.4268,-3.4274,-3.4291,-3.4289,-3.4295,-3.4333,-3.4347,-3.4372,-3.4383,-3.4382,-3.4428,-3.442,-3.4409,-3.4387,-3.4429,-3.4446,-3.4453,-3.4362,-3.4361,-3.4361,-3.436,0,0,-3.4205,-3.4232,-3.4241,-3.4252,-3.4274,-3.4295,-3.4326,-3.4351,-3.4365,-3.4384,-3.4409,-3.4445,-3.4435,-3.4449,-3.4449,-3.447,-3.4512,-3.4456,-3.4456,-3.4465,-3.4563,-3.457,-3.4578,-3.4507,-3.4509,-3.451,-3.4561,0,-3.4256,-3.4309,-3.4311,-3.4359,-3.4384,-3.4377,-3.4403,-3.4419,-3.4426,-3.4448,-3.4455,-3.448,-3.4466,-3.4474,-3.4494,-3.4502,-3.4531,-3.4499,-3.453,-3.4531,-3.4524,-3.4587,-3.4595,-3.4643,-3.4568,-3.4569,-3.457,0,-3.4321,-3.4342,-3.4393,-3.4411,-3.4422,-3.4445,-3.4469,-3.449,-3.4508,-3.4512,-3.4528,-3.4525,-3.4556,-3.4534,-3.4576,-3.4554,-3.4567,-3.4573,-3.4575,-3.4577,-3.4552,-3.459,-3.4658,-3.4665,-3.458,-3.4579,-3.4579,0,-3.436,-3.4401,-3.4437,-3.4447,-3.447,-3.4486,-3.4496,-3.4513,-3.4528,-3.4549,-3.4559,-3.4583,-3.4595,-3.4614,-3.4617,-3.4601,-3.4659,-3.4638,-3.4663,-3.4662,-3.4674,-3.4673,-3.4744,-3.4684,-3.4684,-3.4684,-3.4684,0,-3.4415,-3.4447,-3.4455,-3.4477,-3.4511,-3.4514,-3.4548,-3.4557,-3.4572,-3.4595,-3.459,-3.4612,-3.4616,-3.4639,-3.4642,-3.4676,-3.4682,-3.4685,-3.4685,-3.4685,-3.4684,-3.4692,-3.4689,-3.4686,-3.4686,-3.4685,-3.4685,0,-3.4464,-3.4471,-3.4509,-3.4527,-3.4533,-3.4557,-3.4573,-3.4594,-3.46,-3.463,-3.4637,-3.4647,-3.4673,-3.4679,-3.471,-3.4712,-3.4753,-3.475,-3.4746,-3.4746,-3.477,-3.4767,-3.4848,-3.4858,-3.4792,-3.4793,-3.4793,0,-3.4499,-3.4522,-3.4543,-3.4558,-3.4569,-3.4594,-3.461,-3.4613,-3.4629,-3.4652,-3.467,-3.4696,-3.4717,-3.476,-3.477,-3.4794,-3.4791,-3.4818,-3.4795,-3.4793,-3.4791,-3.4789,-3.4791,-3.4822,-3.4823,-3.4823,-3.4824,0,-3.4558,-3.4561,-3.4583,-3.4607,-3.4626,-3.4645,-3.4663,-3.4676,-3.4682,-3.47,-3.4727,-3.4744,-3.4776,-3.4802,-3.4826,-3.4836,-3.4831,-3.4831,-3.4838,-3.4837,-3.4834,-3.4835,-3.4757,-3.4829,-3.4828,-3.4828,-3.4828,-3.4828,-3.46,-3.4621,-3.4639,-3.4664,-3.4678,-3.4695,-3.4716,-3.4725,-3.4748,-3.4774,-3.4775,-3.4804,-3.4822,-3.4854,-3.4866,-3.4889,-3.4881,-3.4891,-3.4893,-3.4895,-3.4897,-3.4831,-3.4893,-3.4893,-3.4893,-3.4893,-3.4893,0,-3.4659,-3.4671,-3.4694,-3.4719,-3.4739,-3.4733,-3.4753,-3.477,-3.4796,-3.4813,-3.4834,-3.4865,-3.489,-3.4902,-3.4927,-3.4943,-3.4942,-3.495,-3.4948,-3.495,-3.4903,-3.4895,-3.4951,-3.4951,-3.4951,-3.4951,-3.4951,-3.4951,-3.4692,-3.4727,-3.4731,-3.4773,-3.4784,-3.4812,-3.4824,-3.484,-3.4853,-3.4888,-3.4909,-3.4917,-3.4932,-3.4958,-3.4981,-3.4984,-3.4993,-3.5002,-3.5004,-3.496,-3.4954,-3.4948,-3.494,-3.5004,-3.5005,-3.5049,-3.5049,-3.505]},{"header":{"parameterUnit":"m.s-1","parameterCategory":1,"la1":30.2991,"la2":30.254,"lo1":-89.0895,"lo2":-89.0444,"dy":0.0017,"dx":0.0017,"nx":28,"ny":28,"refTime":"2024-08-27T03:00:00:Z","depth":0,"parameterNumber":3,"parameterNumberName":"V-component_of_WINDS"},"data":[0,0,0,0,0,0,0,0,0,0,0,0,0,0,0,0,0,0,0,0,0,0,0,0,0,0,0,0,0,0,0,0,0,0,0,0,0,0,0,0,0,0,0,0,0,0,0,0,0,0,0,0,0,0,0,0,0,0,3.0538,3.0539,0,3.0603,3.0604,3.0605,3.0596,3.0595,3.0594,3.0593,3.0656,3.0658,3.0661,0,0,0,0,0,0,0,0,0,0,0,0,0,3.0403,3.0405,3.0538,3.0539,3.054,3.0603,3.0604,3.0605,3.0596,3.0595,3.0594,3.0592,3.0655,3.0658,3.0661,0,0,0,0,0,0,0,0,0,0,0,0,0,3.0464,3.0406,3.0538,3.0543,3.0544,3.0603,3.0604,3.0605,3.0596,3.0595,3.0593,3.0592,3.0654,3.0658,3.0662,3.0718,0,0,3.0674,3.0676,0,0,0,0,0,0,0,0,3.046,3.0469,3.0542,3.0543,3.0544,3.059,3.0579,3.0643,3.0597,3.0576,3.0593,3.0591,3.0635,3.064,3.0656,3.0721,3.0724,3.0674,3.0677,3.0678,3.0679,0,0,0,0,0,0,0,3.0456,3.0466,3.0564,3.0543,3.0544,3.0541,3.0548,3.0591,3.0614,3.0578,3.0578,3.0586,3.0635,3.0652,3.0657,3.0725,3.0674,3.0678,3.068,3.0682,3.084,3.0842,0,0,0,0,0,0,3.0451,3.0462,3.0562,3.0566,3.0498,3.0545,3.0552,3.0577,3.0613,3.0617,3.0587,3.0585,3.0646,3.0653,3.0659,3.0729,3.0678,3.0682,3.0684,3.0838,3.084,3.0842,0,0,0,0,0,0,3.0448,3.046,3.0559,3.0514,3.0526,3.0549,3.0576,3.0579,3.0596,3.062,3.0624,3.06,3.0645,3.0654,3.0704,3.0731,3.0684,3.0687,3.0836,3.0839,3.0841,3.0868,0,0,0,0,0,0,3.0444,3.0459,3.0482,3.0515,3.0529,3.0604,3.0578,3.0581,3.0603,3.0601,3.0634,3.0637,3.0644,3.0698,3.0708,3.0736,3.0691,3.0834,3.0837,3.0841,3.0865,3.0871,3.0877,0,0,0,0,0,3.044,3.0486,3.0483,3.0495,3.0558,3.0606,3.0614,3.0622,3.0605,3.0628,3.0643,3.0636,3.0726,3.0703,3.0714,3.0744,3.0832,3.0836,3.084,3.0862,3.087,3.0877,0,0,0,0,0,0,3.0454,3.049,3.0488,3.0546,3.0573,3.0604,3.0633,3.063,3.0661,3.0658,3.0666,3.0673,3.0724,3.0738,3.0713,3.08,3.0777,3.0783,3.079,3.0797,3.0803,3.0799,3.0694,0,0,0,0,0,3.0465,3.0502,3.053,3.0579,3.0593,3.0611,3.0632,3.0636,3.0663,3.0674,3.0693,3.0719,3.0754,3.0776,3.0809,3.0866,3.0873,3.0892,3.0898,3.0903,3.0908,3.094,3.0949,3.0856,3.0856,3.0856,0,0,3.0486,3.051,3.0533,3.0583,3.0604,3.0641,3.062,3.066,3.0688,3.068,3.073,3.0744,3.0773,3.0828,3.0853,3.0842,3.0936,3.0908,3.0911,3.0915,3.0945,3.0954,3.0962,3.0859,3.0858,3.0858,0,0,3.0544,3.0566,3.061,3.0632,3.0665,3.0676,3.0686,3.0718,3.0728,3.0778,3.0773,3.0804,3.0863,3.0885,3.0903,3.0969,3.0963,3.0979,3.1011,3.1042,3.1049,3.1056,3.108,3.1088,3.0984,3.0984,3.0984,0,3.0567,3.0624,3.0632,3.0673,3.0695,3.0691,3.0735,3.0755,3.0796,3.0811,3.0798,3.0872,3.0891,3.0951,3.0967,3.0982,3.0993,3.0976,3.1048,3.1054,3.106,3.1084,3.1093,3.0986,3.0986,3.0986,3.0986,0,3.065,3.0689,3.072,3.0762,3.0787,3.0829,3.0843,3.0867,3.0868,3.0881,3.0931,3.0954,3.0992,3.1006,3.1007,3.1066,3.1058,3.1046,3.1022,3.1071,3.1093,3.1102,3.0989,3.0988,3.0987,3.0987,0,0,3.0721,3.0766,3.0778,3.0797,3.0832,3.0863,3.0903,3.0941,3.0962,3.099,3.1025,3.1074,3.1064,3.1085,3.1088,3.1115,3.1167,3.11,3.1101,3.1113,3.1233,3.1243,3.1253,3.1163,3.1165,3.1166,3.1231,0,3.0783,3.0858,3.0867,3.0933,3.0969,3.0965,3.1001,3.1026,3.1038,3.107,3.1083,3.1118,3.1101,3.1114,3.114,3.1155,3.1191,3.115,3.1195,3.1197,3.119,3.1265,3.1275,3.1336,3.124,3.1241,3.1242,0,3.0867,3.0899,3.097,3.1001,3.1016,3.1048,3.1084,3.1114,3.1142,3.1149,3.1172,3.1172,3.1214,3.1187,3.1244,3.1216,3.1235,3.1244,3.1247,3.1253,3.1224,3.1273,3.1355,3.1365,3.1256,3.1255,3.1254,0,3.0913,3.0974,3.1024,3.104,3.1077,3.11,3.1116,3.1142,3.1165,3.1195,3.1209,3.1243,3.1262,3.1288,3.1296,3.1276,3.1353,3.1327,3.136,3.136,3.1378,3.1377,3.1465,3.1387,3.1387,3.1387,3.1386,0,3.0984,3.1027,3.1045,3.1077,3.1125,3.1133,3.118,3.1195,3.1218,3.1251,3.1248,3.1279,3.1288,3.132,3.1326,3.1373,3.1381,3.1387,3.1389,3.1388,3.1388,3.1402,3.1398,3.1389,3.1389,3.1388,3.1388,0,3.1044,3.1058,3.1113,3.1143,3.1152,3.1186,3.1212,3.1241,3.1252,3.1294,3.1304,3.1322,3.1359,3.137,3.1414,3.1418,3.1474,3.147,3.1465,3.1465,3.1498,3.1495,3.1599,3.1614,3.1525,3.1526,3.1526,0,3.1089,3.1123,3.1157,3.118,3.1197,3.1233,3.1256,3.1265,3.1288,3.1323,3.1348,3.1385,3.1415,3.1475,3.1491,3.1525,3.1523,3.1557,3.1528,3.1527,3.1525,3.1524,3.1527,3.1563,3.1564,3.1565,3.1565,0,3.1167,3.1173,3.1207,3.1243,3.1271,3.13,3.1327,3.1345,3.1358,3.1384,3.1423,3.1447,3.1493,3.153,3.1564,3.1579,3.1575,3.1574,3.1584,3.1585,3.1581,3.1585,3.1481,3.1572,3.1572,3.1571,3.1571,3.157,3.1223,3.1252,3.1282,3.1319,3.1341,3.1367,3.1396,3.1411,3.1444,3.1484,3.1486,3.1528,3.1554,3.16,3.1617,3.1649,3.1639,3.1652,3.1656,3.166,3.1663,3.1574,3.1655,3.1655,3.1655,3.1654,3.1654,0,3.1302,3.132,3.1355,3.1394,3.1424,3.1417,3.1447,3.1472,3.151,3.1535,3.1565,3.161,3.1645,3.1664,3.1699,3.1721,3.172,3.173,3.173,3.1733,3.167,3.1659,3.1731,3.1731,3.1731,3.1731,3.1731,3.1731,3.1347,3.1398,3.1406,3.1467,3.1484,3.1527,3.1545,3.1568,3.1588,3.1639,3.1669,3.1681,3.1703,3.174,3.1772,3.1776,3.179,3.1802,3.1805,3.1745,3.1738,3.173,3.172,3.1804,3.1804,3.1866,3.1867,3.1867]}]]